Regional Weather Roundup
Issued by NWS

Home | Current Version | Previous Version | Graphics & Text | Print | Product List | Glossary Off
Versions: 1 2 3 4 5 6 7 8 9 10 11 12 13 14 15 16 17 18 19 20 21 22 23 24 25 26 27 28 29 30 31 32 33 34 35 36 37 38 39 40 41 42 43 44 45 46 47 48 49 50

000
ASUS43 KFSD 230510
RWRSD

WEATHER ROUNDUP FOR SOUTH DAKOTA
NATIONAL WEATHER SERVICE SIOUX FALLS SD
1200 AM CDT SUN APR 23 2017

NOTE: "FAIR" INDICATES FEW OR NO CLOUDS BELOW 12,000 FEET WITH NO
SIGNIFICANT WEATHER AND/OR OBSTRUCTIONS TO VISIBILITY.


SDZ001>005-009-010-012>017-230600-
NORTHWEST AND NORTH CENTRAL SOUTH DAKOTA

CITY           SKY/WX    TMP DP  RH WIND       PRES   REMARKS
BUFFALO          N/A     51  41  68 E6        29.94F
FAITH            N/A     48  38  68 SE13      30.01F
MOBRIDGE       CLOUDY    53  38  56 SE6       30.01F
$$

SDZ012>016-024>037-041>051-057-063-072>074-230600-
SOUTHWEST AND SOUTH CENTRAL SOUTH DAKOTA

CITY           SKY/WX    TMP DP  RH WIND       PRES   REMARKS
RAPID CTY ARPT CLEAR     41  32  70 S5        30.03F
PIERRE         CLEAR     53  32  44 S10       30.05S
CUSTER         CLEAR     45  26  47 SW10G17   30.09F
ELLSWORTH AFB  CLEAR     47  33  58 S3        30.01F HAZE
PHILIP         CLEAR     52  32  46 S10       30.04F
PINE RIDGE     CLEAR     50  32  50 S17       30.09F
SPEARFISH      FAIR      41  32  70 S9        30.03F
WINNER         FAIR      52  32  46 S15       30.10F
$$

SDZ004>011-016>023-039-040-230600-
NORTHEAST SOUTH DAKOTA

CITY           SKY/WX    TMP DP  RH WIND       PRES   REMARKS
ABERDEEN       PTCLDY    54  34  46 NW16      30.08R
WATERTOWN      CLEAR     50  39  66 SW13      30.09F
BROOKINGS      CLEAR     49  37  63 SW6       30.13F
SISSETON         N/A     43  38  82 N15       30.11R
$$

SDZ017-020-022-023-036>040-048>070-230600-
SOUTHEAST SOUTH DAKOTA

CITY           SKY/WX    TMP DP  RH WIND       PRES   REMARKS
SIOUX FALLS    CLEAR     53  38  56 SW8       30.14F
HURON          CLEAR     52  38  58 S10       30.09F
CHAMBERLAIN    CLEAR     52  39  59 SE12      30.09F
MITCHELL       CLEAR     54  37  52 S10       30.13F
YANKTON        CLEAR     52  34  50 S3        30.16F
$$

ABBREVIATIONS USED IN REMARKS
   TC - TEMPERATURE IN CELSIUS
  WCI - WIND CHILL INDEX
   HX - HEAT INDEX
  VSB - VISIBILITY





USA.gov is the U.S. government's official web portal to all federal, state and local government web resources and services.